User: anonymous   Login
Location: Gipe Farm
(40.9466°N, 95.5370°W)
Time: 05:06:00
(UTC-05:00)
Language:

Cosmos 2082 Rocket - Orbit

View from above orbital plane
View from above orbital plane
View from above satellite
View from above satellite

Ground track
Ground track

The orbit data is extracted from the following two-line orbital elements,

1 20625U 90046B   17116.87130895 -.00000162 +00000-0 -59198-4 0  9998
2 20625 070.9983 256.8373 0014836 193.6136 166.4589 14.14611308390323
Epoch (UTC): 26 April 2017 20:54:41
Eccentricity: 0.0014836
inclination: 70.9983°
perigee height: 833 km
apogee height: 854 km
right ascension of ascending node: 256.8373°
argument of perigee: 193.6136°
revolutions per day: 14.14611308
mean anomaly at epoch: 166.4589°
orbit number at epoch: 39032

The dashed part of the orbit path shows where the satellite is in the earth's shadow,  

DLR